Miscellaneous Local Product
Issued by NWS Hastings, NE

Home | Current Version | Previous Version | Text Only | Print | Product List | Glossary Off
Versions: 1 2 3 4 5 6 7 8 9 10 11 12 13 14 15 16 17 18 19 20 21 22 23 24 25 26 27 28 29 30 31 32 33 34 35 36 37 38 39 40 41 42 43 44 45 46 47 48 49 50

000
AXUS43 KGID 021002
MISGRI

GID CWA HOURLY WEATHER ROUNDUP
NATIONAL WEATHER SERVICE HASTINGS NE
500 AM CDT WED SEP 02 2015

NOTE: "FAIR" INDICATES FEW OR NO CLOUDS BELOW 12,000 FEET WITH NO
SIGNIFICANT WEATHER AND/OR OBSTRUCTIONS TO VISIBILITY.

...SOUTH CENTRAL NEBRASKA...

CITY           SKY/WX    TMP DP  RH WIND       PRES   REMARKS
GRAND ISLAND   CLEAR     71  63  75 S9        29.88S
HASTINGS       CLEAR     71  62  73 S6        29.89S
KEARNEY        CLEAR     64  57  77 CALM      29.89S
ORD            CLEAR     63  61  93 SW3       29.85F
YORK           CLEAR     68  66  94 S8        29.89S
AURORA         CLEAR     70  67  90 S8        29.89R
LEXINGTON      CLEAR     63  60  91 CALM      29.90S
HOLDREGE       CLEAR     68  57  68 SW8       29.89F
HEBRON         CLEAR     73  64  73 S7        29.90S

...NEBRASKA PANHANDLE...

CITY           SKY/WX    TMP DP  RH WIND       PRES   REMARKS
CHADRON        PTCLDY    55  45  68 SW6       29.88S
ALLIANCE       PTCLDY    54  46  74 W3        29.94S
SCOTTSBLUFF    MOCLDY    58  50  75 CALM      29.97R
SIDNEY         PTCLDY    59  43  55 NW13      29.99S

...WESTERN AND NORTH CENTRAL NEBRASKA...

CITY           SKY/WX    TMP DP  RH WIND       PRES   REMARKS
VALENTINE      CLEAR     60  57  89 CALM      29.85S
AINSWORTH      CLEAR     67  62  84 SW8       29.85F
ONEILL         CLEAR     66  65  95 S5        29.85S
BROKEN BOW     CLEAR     62  59  90 CALM      29.89S
IMPERIAL       CLEAR     63  56  78 SW3       29.93F
NORTH PLATTE   CLEAR     60  58  92 SE6       29.91S
MCCOOK         CLEAR     62  57  83 CALM      29.90S

...EASTERN NEBRASKA...

CITY           SKY/WX    TMP DP  RH WIND       PRES   REMARKS
NORFOLK        CLEAR     64  63  96 CALM      29.85S
SO SIOUX CITY  CLEAR     69  63  81 E8        29.87R
TEKAMAH        CLEAR     70  68  93 SE8       29.88S
COLUMBUS       CLEAR     72  63  73 S6        29.87S
ALBION         CLEAR     69  63  81 CALM      29.87S
OMAHA EPPLEY   PTCLDY    74  69  85 SE14      29.90S
OFFUTT AFB     PTCLDY    74  69  83 SE13      29.90R
MILLARD        CLEAR     73  69  87 SE6       29.90R
LINCOLN        CLEAR     74  68  81 S9        29.89S
NEBRASKA CITY  PTCLDY    73  66  79 S13       29.93R
BEATRICE       CLEAR     74  67  79 S9        29.91S
FALLS CITY     MOCLDY    73  69  87 SE9       29.93S

...NORTHERN KANSAS...

CITY           SKY/WX    TMP DP  RH WIND       PRES   REMARKS
GOODLAND       PTCLDY    61  56  83 S6        29.97S
HILL CITY      CLEAR     75  57  53 SW8       29.91S
NORTON         SUNNY     73  54  49 S10       29.89F
PHILLIPSBURG   CLEAR     79  57  47 S3        29.89S
SMITH CENTER   CLEAR     72  57  60 S8        29.90S
HAYS           CLEAR     75  55  50 S10       29.93S
RUSSELL        CLEAR     76  60  57 S17       29.91F
CONCORDIA      PTCLDY    74  65  73 S14       29.91R
SALINA         CLEAR     78  63  59 S15       29.93R
TOPEKA         PTCLDY    75  66  73 VRB3      29.96R



USA.gov is the U.S. government's official web portal to all federal, state and local government web resources and services.